This is the latest recevied weather packets stored in our database for station/object M0JUI-1. If no packets are shown the sender has not sent any weather packets the latest 10 day(s).
| Time | Temp. | Humidity | Pressure | Rain* | Wind** | Luminosity | Snow |
|---|---|---|---|---|---|---|---|
| 1777821219 | 12.78° C | 94% | 1010.1 hPa | 0 mm | - | 44 W/m² | - |
| 1777820919 | 12.78° C | 93% | 1009.9 hPa | 0 mm | - | 76 W/m² | - |
| 1777820619 | 12.22° C | 93% | 1010.1 hPa | 0 mm | - | 72 W/m² | - |
| 1777820319 | 12.78° C | 92% | 1009.9 hPa | 0 mm | - | 78 W/m² | - |
| 1777820019 | 12.78° C | 91% | 1010.1 hPa | 0 mm | - | 51 W/m² | - |
| 1777819719 | 12.78° C | 91% | 1009.9 hPa | 0 mm | - | 59 W/m² | - |
| 1777819419 | 12.78° C | 91% | 1010.1 hPa | 0 mm | - | 71 W/m² | - |
| 1777819119 | 12.78° C | 90% | 1009.8 hPa | 0 mm | - | 115 W/m² | - |
| 1777818820 | 12.78° C | 90% | 1009.9 hPa | 0 mm | - | 99 W/m² | - |
| 1777818519 | 12.78° C | 89% | 1009.9 hPa | 0 mm | - | 111 W/m² | - |
| 1777818219 | 12.22° C | 88% | 1009.8 hPa | 0 mm | - | 112 W/m² | - |
| 1777817920 | 12.22° C | 88% | 1009.9 hPa | 0 mm | - | 106 W/m² | - |
| 1777817620 | 12.22° C | 88% | 1010.1 hPa | 0 mm | - | 98 W/m² | - |
| 1777817319 | 12.22° C | 87% | 1010.1 hPa | 0 mm | - | 101 W/m² | - |
| 1777817019 | 12.22° C | 87% | 1009.9 hPa | 0 mm | - | 82 W/m² | - |
| 1777816719 | 12.22° C | 86% | 1010.2 hPa | 0 mm | - | 65 W/m² | - |
| 1777816419 | 12.22° C | 86% | 1010 hPa | 0 mm | - | 58 W/m² | - |
| 1777816124 | 12.78° C | 85% | 1009.9 hPa | 0 mm | - | 57 W/m² | - |
| 1777815819 | 12.78° C | 84% | 1010.1 hPa | 0 mm | - | 88 W/m² | - |
| 1777815519 | 12.78° C | 84% | 1010 hPa | 0 mm | - | 109 W/m² | - |
| 1777815219 | 12.78° C | 83% | 1010.1 hPa | 0 mm | - | 154 W/m² | - |
| 1777814919 | 13.33° C | 82% | 1009.9 hPa | 0 mm | - | 237 W/m² | - |
| 1777814619 | 12.78° C | 82% | 1010 hPa | 0 mm | - | 293 W/m² | - |
| 1777814319 | 12.78° C | 81% | 1009.9 hPa | 0 mm | - | 235 W/m² | - |
| 1777814019 | 12.78° C | 81% | 1010 hPa | 0 mm | - | 262 W/m² | - |
* Rain latest hour (hover to see other rain measurements)
** Current wind speed in m/s (hover to see current wind gust speed)